#timestamp,LO_Frequency,Hit,StdDev 
1684281615.9,286047000.6,N
1684281635.7,286047000.4,N
1684281655.6,286046997.1,N
1684281675.4,286046996.9,N
1684281695.2,286046998.5,N
1684281715.1,286047002.1,N
1684281716.0,286047002.1,N
1684281735.8,286047004.2,N
1684281755.7,286047001.4,N
1684281775.5,286047001.4,N
1684281795.3,286047001.4,N
1684281815.2,286047005.6,N
1684281835.0,286047005.5,N
1684281835.9,286047005.5,N
1684281855.8,286047005.4,N
1684281875.6,286047003.0,N
1684281895.4,286047003.8,N
1684281915.3,286047003.8,N
1684281935.1,286047001.8,N
1684281955.9,286047002.1,N
1684281975.7,286047001.4,N
1684281995.5,286047003.6,N
1684282015.4,286047002.0,N
1684282035.2,286047001.5,N
1684282055.0,286046999.8,N
1684282055.9,286046999.8,N
1684282075.8,286047001.6,N
1684282095.6,286046999.8,N
1684282115.5,286047000.2,N
1684282135.3,286047000.1,N
1684282155.1,286047001.9,N
1684282175.9,286047004.2,N
1684282195.7,286047005.4,N
1684282215.5,286047006.4,N
1684282235.4,286047007.2,Y
1684282255.2,286047002.3,P
1684282275.1,286046998.6,P
1684282276.0,286046998.6,N
1684282295.8,286046999.9,N
1684282315.9,286047002.3,N
1684282335.7,286047002.2,N
1684282355.6,286046999.8,N
1684282375.4,286047001.2,N
1684282395.2,286046999.1,N
1684282415.1,286046999.6,N
1684282416.0,286046999.6,N
1684282435.8,286046998.3,N
1684282455.6,286047000.0,N
1684282475.5,286047002.8,N
1684282495.3,286047001.9,N
1684282515.2,286047001.6,N
1684282535.9,286047002.5,N
1684282555.7,286047001.9,N
1684282575.6,286047003.7,N
1684282595.4,286047001.4,N
1684282615.3,286047005.6,Y
1684282635.1,286047004.1,P
1684282636.0,286047004.1,N
1684282655.8,286047000.8,N
1684282675.7,286046997.4,N
1684282695.5,286046996.9,N
1684282715.3,286046999.0,N
1684282735.2,286047000.0,N
1684282755.0,286046999.8,N
1684282755.9,286046999.8,N
1684282775.8,286047001.9,N
1684282795.6,286047002.5,N
1684282815.4,286047002.5,N
1684282835.3,286047002.6,N
1684282855.1,286047000.1,N
1684282875.9,286046998.5,N
1684282895.7,286047000.5,N
1684282915.5,286047000.5,N
1684282935.4,286046999.7,N
1684282955.2,286047001.6,N
1684282975.0,286047002.3,N
1684282975.9,286047002.3,N
1684282995.8,286047002.3,N
1684283015.6,286047001.7,N
1684283035.5,286047001.6,N
1684283055.3,286047002.5,N
1684283075.1,286047001.4,N
1684283095.9,286047001.9,N
1684283115.7,286047004.4,N
1684283135.5,286047001.9,N
1684283155.4,286046999.3,N
1684283175.2,286046999.2,N
1684283195.1,286046998.1,N
1684283196.0,286046998.1,N
1684283215.8,286047000.4,N
1684283235.6,286047002.7,N
1684283255.5,286047002.6,N
1684283275.3,286047000.0,N
1684283295.2,286046999.7,N
1684283315.9,286047001.8,N
1684283335.7,286047000.2,N
1684283355.6,286047001.2,N
1684283375.4,286047000.6,N
1684283395.2,286047000.9,N
1684283415.1,286046998.8,N
1684283416.0,286046998.8,N
1684283435.8,286046999.5,N
1684283455.7,286046999.0,N
1684283475.5,286046998.7,N
1684283495.3,286046998.5,N
1684283515.2,286047000.8,N
1684283535.0,286046998.4,N
1684283535.9,286046998.4,N
1684283555.8,286046999.0,N
1684283575.6,286047000.5,N
1684283595.4,286047000.4,N
1684283615.3,286047002.5,N
1684283635.1,286047002.0,N
1684283655.9,286047003.8,N
1684283675.7,286047001.3,N
1684283695.5,286047000.2,N
1684283715.4,286047002.0,N
1684283735.2,286047004.0,N
1684283755.0,286047003.8,N
1684283755.9,286047003.8,N
1684283775.8,286047001.4,N
1684283795.6,286047003.7,N
1684283815.5,286047004.0,N
1684283835.3,286047001.3,N
1684283855.1,286047001.8,N
1684283875.9,286047002.3,N
1684283895.7,286047002.8,N
1684283915.5,286047001.6,N
1684283935.4,286047002.7,N
1684283955.2,286047002.7,N
1684283975.1,286047002.3,N
1684283976.0,286047002.3,N
1684283995.8,286047000.2,N
1684284015.6,286047002.4,N
1684284035.5,286047002.0,N
1684284055.3,286047001.7,N
1684284075.1,286047003.0,N
1684284095.9,286047005.6,Y
1684284115.7,286047003.7,P
1684284135.6,286047001.7,N
1684284155.4,286047003.9,P
1684284175.2,286047003.4,Y
1684284195.1,286047002.6,P
1684284196.0,286047002.6,P
1684284215.8,286047002.7,P
1684284235.7,286047001.1,Y
1684284255.5,286046997.1,P
1684284275.3,286046997.7,N
1684284295.2,286046997.5,N
1684284315.0,286046995.1,N
1684284315.9,286046995.1,N
1684284335.7,286046996.2,N
1684284355.6,286046996.0,N
1684284375.4,286046995.2,N
1684284395.3,286046997.8,N
1684284415.1,286046997.3,N
1684284435.8,286046995.0,N
1684284455.7,286046995.7,N
1684284475.5,286046993.8,Y
1684284495.4,286046997.8,P
1684284545.2,286046997.0,E
1684284555.1,286047001.2,N
1684284575.9,286046999.8,P
1684284595.7,286047002.6,P
1684284615.6,286047000.3,N
1684284635.4,286047000.8,N
1684284655.2,286047000.7,N
1684284675.1,286047000.8,N
1684284676.0,286047000.8,N
1684284695.8,286047000.6,N
1684284715.7,286047000.6,N
1684284735.5,286046998.2,N
1684284755.3,286046998.1,N
1684284775.2,286046998.6,N
1684284795.9,286046998.3,N
1684284815.7,286046999.3,N
1684284835.6,286046996.9,N
1684284855.4,286046997.2,N
1684284875.3,286046997.2,N
1684284895.1,286046997.6,N
1684284896.0,286046997.6,N
1684284915.8,286046997.7,N
1684284935.7,286046997.2,N
1684284955.5,286046997.2,N
1684284975.3,286046997.7,N
1684284995.2,286046997.2,N
1684285015.0,286046997.9,N
1684285015.9,286046997.9,N
1684285035.8,286046995.6,N
1684285055.6,286046996.2,N
1684285075.4,286046995.9,N
1684285095.3,286046994.8,N
1684285115.1,286046994.5,Y
1684285135.8,286046995.2,P
1684285155.7,286046998.0,N
1684285175.5,286046995.6,P
1684285195.4,286046996.1,N
